{"data":{"norad_id":66946,"intl_designator":"2025-286X","name":"STARLINK-36115","alt_names":[],"object_type":"PAYLOAD","status":"ACTIVE","operator":null,"country":"US","launch_date":"2025-12-07","launch_site_code":"AFWTR","launch_vehicle":null,"mission":null,"orbit_class":"UNKNOWN","rcs_meters":null,"size_class":null,"mass_kg":null,"dimensions":null,"purposes":["comms"],"wikipedia_slug":null,"has_3d_model":false,"image_url":null,"decayed_at":null,"tle_current":{"epoch":"2026-09-19T05:42:21.390912Z","epoch_age_seconds":190744,"freshness":"STALE","line1":"1 66946U 25286X   26262.23774758  .00014303  00000+0  43354-3 0  9997","line2":"2 66946  53.1570 175.6212 0001821 120.8373 239.2809 15.34408011 45104","mean_motion":15.34408011,"eccentricity":0.0001821,"inclination_deg":53.157,"raan_deg":175.6212,"arg_perigee_deg":120.8373,"mean_anomaly_deg":239.2809,"bstar":0.00043354,"rev_number":4510,"period_min":93.847268111011,"perigee_km":461.43371725857,"apogee_km":463.92514260235,"semimajor_km":6840.8164299305,"source":"CELESTRAK","updated_at":"2026-09-21T09:00:36.060328Z"}}}